Location: Aghk�ilisa
(40.0189°N, 45.0097°E)
Time: 13:21:17
(UTC+00:00)

NOSS 3-2 (C) - Pass Details

Date: 21 October 2019
Orbit: 818 x 1394 km, 63.4° (Epoch: 06 November)

Event Time Altitude Azimuth Distance (km) Brightness Sun altitude
Rises 16:09:44 0° 219° (SW) 3,368 6.8 -23.1°
Reaches altitude 10° 16:12:06 10° 221° (SW) 2,470 6.1 -23.6°
Maximum altitude 16:17:46 72° 306° (NW) 956 3.5 -24.7°
Enters shadow 16:22:04 21° 28° (NNE) 2,013 4.9 -25.5°
